Simultaneous Nadir Overpasses (SNOs) Predictions

Prediction of SNOs between GOES-17 and NOAA-19 Satellite Orbit:

Table of predicted SNOs for the next 14.0 days since TLE Epoch: 3/25/2023
Index Date Time (GOES-17) GOES-17 Lat,Lon NOAA-19 Lat,Lon Distance(km) Time Diff (sec)
1 03/25/2023 15:27:56 -0.03,-104.77 0.27,-105.92 131.21 80
2 03/26/2023 15:15:58 -0.03,-104.77 -0.44,-103.00 202.06 80
3 03/29/2023 03:39:01 0.03,-104.74 -0.72,-107.84 354.59 80
4 03/30/2023 03:27:02 0.03,-104.74 -0.01,-104.92 21.36 80
5 03/31/2023 03:12:23 0.03,-104.74 0.65,-102.00 311.97 80
6 04/02/2023 15:32:28 -0.03,-104.78 0.41,-106.77 227.45 80
7 04/03/2023 15:23:08 -0.03,-104.78 -0.26,-103.85 106.28 80
8 04/04/2023 15:08:28 -0.00,-104.78 -0.87,-100.92 440.58 80
9 04/06/2023 03:43:30 -0.02,-104.75 -0.92,-108.68 447.96 80
10 04/07/2023 03:31:30 -0.01,-104.75 -0.24,-105.76 114.45 80
